1998-067XL

Last updated on Fri Sep 26 2025 00:02:09 GMT+0000 (Coordinated Universal Time)

1 65732U 98067XL 25267.46794739 .00081406 00000+0 13237-2 0 9990 2 65732 51.6337 174.9363 0000676 97.6691 262.4375 15.51968466 796
UTC large
Height (km)
Speed (km/s)
/
Latitude / Longitude
Inclination (degrees)
Orbital Period (minutes)
Azimuth
Elevation
Range (km)
Doppler Factor

Next 0 passes for location: London (51.5072 / 0.1276)

Sorry there are no passes over London.
1998-067XL